Z-Sat
1 49399U 21102E 23208.70918155 .00003298 00000-0 23495-3 0 9999
2 49399 97.4810 260.5629 0020469 292.6060 67.3002 15.05109484 93985
KOSEN 1
1 49402U 21102H 23208.40289502 .00004656 00000-0 31416-3 0 9999
2 49402 97.4753 260.8480 0018805 281.0216 78.8896 15.06960514 94013
HO-113
1 50466U 21131B 23208.77827275 .00000621 00000-0 21573-3 0 9999
2 50466 98.5515 290.1979 0004667 34.2026 325.9461 14.38977918 83191
Tevel-3
1 50988U 22002E 23208.70639655 .00019821 00000-0 75524-3 0 9999
2 50988 97.4313 275.4337 0008809 96.8006 263.4235 15.26712795 84949
Tevel-8
1 50989U 22002F 23208.66140129 .00020441 00000-0 78044-3 0 9998
2 50989 97.4329 275.4524 0008769 96.2377 263.9861 15.26639736 84937
Tevel-5
1 50998U 22002Q 23208.62831013 .00021086 00000-0 78152-3 0 9999
2 50998 97.4306 275.7892 0009723 91.5064 268.7289 15.27607661 84968
Tevel-6
1 50999U 22002R 23208.75783369 .00021428 00000-0 79400-3 0 9991
2 50999 97.4305 275.9122 0009710 90.8591 269.3761 15.27612460 84986
Tevel-1
1 51013U 22002AF 23208.65193393 .00020368 00000-0 77722-3 0 9997
2 51013 97.4304 275.3159 0008684 96.7116 263.5111 15.26659259 84930
Grizu-263a
1 51025U 22002AT 23207.94326912 .00155486 00000-0 23930-2 0 9997
2 51025 97.4422 281.7585 0004750 108.0780 252.0991 15.53651485 85216
NO-116
1 51031U 22002AZ 23208.16455305 .00048468 00000-0 13901-2 0 9996
2 51031 97.4431 278.4077 0009108 90.9315 269.2972 15.35686239 85031
IRIS-A
1 51044U 22002BN 23208.43426252 .00010885 00000-0 50510-3 0 9999
2 51044 97.4324 273.2899 0009662 100.5926 259.6398 15.20170628 84771
Tevel-7
1 51062U 22002CG 23208.66185166 .00020598 00000-0 78587-3 0 9996
2 51062 97.4324 275.4250 0008709 95.8450 264.3782 15.26662619 84935
Tevel-4
1 51063U 22002CH 23208.66943689 .00020351 00000-0 77796-3 0 9997
2 51063 97.4321 275.4121 0008726 95.7616 264.4618 15.26599662 84938
Tevel-2
1 51069U 22002CP 23208.64255336 .00019815 00000-0 75492-3 0 9990
2 51069 97.4310 275.3401 0008740 96.9193 263.3041 15.26716649 84935
DELFI-PQ
1 51074U 22002CU 23208.15113884 .00052311 00000-0 13226-2 0 9997
2 51074 97.4563 281.0713 0009548 116.3909 243.8318 15.39569535 85148
SO-115
1 51080U 22002DA 23207.43650094 .00031282 00000-0 10546-2 0 9999
2 51080 97.4580 278.3092 0011555 122.0164 238.2201 15.30606721 84891
SO-114
1 51081U 22002DB 23208.13869381 .00031800 00000-0 10637-2 0 9996
2 51081 97.4577 278.9934 0011550 119.1798 241.0599 15.30856985 85009
OreSat0
1 52017U 22026K 23208.44625618 .00019222 00000-0 73810-3 0 9996
2 52017 97.5088 210.9955 0019080 304.7617 55.1824 15.26328615 75681
Planetum 1
1 52738U 22057G 23208.28439851 .00016629 00000-0 74324-3 0 9993
2 52738 97.5407 324.2669 0006811 199.6477 160.4497 15.21382441 64754
Foresail-1
1 52766U 22057AL 23208.61864655 .00011123 00000-0 51538-3 0 9991
2 52766 97.5530 325.4964 0012030 183.7492 176.3655 15.20197466 64824
SNUGLITE 2
1 52899U 22065F 23208.32906764 .00001379 00000-0 30040-3 0 9990
2 52899 98.0741 352.0674 0009290 91.8955 268.3309 14.59413280 56715
CTIM
1 52950U 22074G 23208.27794200 .00070269 00000-0 13539-2 0 9999
2 52950 44.9966 134.5623 0012755 127.6320 232.5729 15.46948012 59808
IO-117
1 53106U 22080B 23206.34031428 -.00000003 00000-0 00000-0 0 9999
2 53106 70.1615 306.4627 0008579 178.9907 181.0771 6.42556808 24202
AstroBioCubeSat
1 53107U 22080C 23025.30817895 -.00000003 00000-0 00000-0 0 9995
2 53107 70.1710 9.4734 0013545 210.3158 149.6718 6.42110537 12478
SelfieSat
1 53951U 22057BC 23208.59744424 .00019410 00000-0 81710-3 0 9998
2 53951 97.5456 325.3546 0008862 193.7041 166.3956 15.23376182 64833
FO-118
1 54684U 22167C 23208.77655366 .00012712 00000-0 68349-3 0 9991
2 54684 97.5667 346.1111 0013336 190.0469 170.0498 15.14937515 34828
SSS-2B
1 56184U 23054G 23208.64135319 .00013662 00000-0 57006-3 0 9994
2 56184 97.4060 103.0605 0008632 248.7462 111.2853 15.23752534 16330
CIRBE
1 56188U 23054L 23208.15200882 .00017842 00000-0 72797-3 0 9990
2 56188 97.4012 102.5791 0007377 242.4191 117.6297 15.24458402 16268
INSPIRE-Sat 7
1 56211U 23054AK 23208.17732989 .00019915 00000-0 76909-3 0 9999
2 56211 97.4031 102.8868 0012566 223.7159 136.3086 15.26225930 16282
RoseyCubesat 1
1 56212U 23054AL 23208.16297502 .00020767 00000-0 79393-3 0 9993
2 56212 97.4037 102.9136 0012836 222.9612 137.0625 15.26551457 16286
ARKSAT 1
1 56311U 98067VC 23208.16499257 .00086586 00000-0 94890-3 0 9990
2 56311 51.6367 126.0768 0003563 197.1602 162.9273 15.62510013 14604
AuroraSat
1 56312U 98067VD 23208.18358647 .00117710 00000-0 11742-2 0 9998
2 56312 51.6346 125.4440 0004261 187.2167 172.8768 15.64761936 14641
Ex-Alta 2
1 56313U 98067VE 23206.94905383 .00083870 00000-0 92509-3 0 9996
2 56313 51.6346 132.1987 0003738 193.1642 166.9255 15.62357034 14435
LightCube
1 56314U 98067VF 23208.77096996 .00101030 00000-0 10272-2 0 9996
2 56314 51.6344 122.6154 0005627 182.8184 177.2780 15.64344061 14750
NEUDOSE
1 56315U 98067VG 23207.99998289 .00061810 00000-0 77189-3 0 9998
2 56315 51.6360 127.9693 0005316 197.6549 162.4260 15.59242196 14567
YukonSat
1 56316U 98067VH 23208.14761158 .00074718 00000-0 86901-3 0 9993
2 56316 51.6348 126.7044 0005303 191.1808 168.9068 15.61026986 14617
URESAT-1
1 56992U 23084BU 23208.60216612 .00013785 00000-0 79019-3 0 9990
2 56992 97.5089 324.4601 0019203 81.3564 278.9841 15.12545429 6758
MRC-100
1 56993U 23084BV 23208.07326616 .00016987 00000-0 97269-3 0 9992
2 56993 97.5091 323.9427 0019098 83.0378 277.3024 15.12537519 6685
UmKA 1 (RS40S)
1 57172U 23091G 23208.76150612 .00005141 00000-0 37983-3 0 9994
2 57172 97.6619 259.1765 0018950 145.5675 214.6782 15.03522990 4531
CubeBel-2 (EU11S)
1 57175U 23091K 23208.77404817 .00005246 00000-0 39403-3 0 9992
2 57175 97.6596 259.1601 0017403 156.1563 204.0472 15.02915905 4533
/EX
1
0
28 Jul '23
The following satellite has been added to this week's AMSAT-NA TLE distribution:
MRC-100 NORAD Cat ID 56993 IARU Coordinated Frequency: 436.720 MHz.
(Thanks to Nico Janssen, PA0DLO for identification).
The follwing satellite has decayed from orbit and has been removed from this week's AMSAT-NA TLE distribution:
DO-111 (ARDUIQUBE/DIY-1) NORAD Cat ID 47963 decayed from orbit on 21 July 2023 per Space-Track.org
Joe Fitzgerald KM1P
AMSAT Orbital Elements Manager
1
0
SB KEPS @ AMSAT $ORB23202.1
2Line Orbital Elements 23202.AMSAT
QST de W1STR
AMSAT Orbital Elements for Amateur Satellites in TLE Format
>From Orbital Analysis Office
New England Sci-Tech STEM Education Center
Natick, MA July 21, 2023
To all radio amateurs
Decode two line element sets with the following key:
1 AAAAAU 00 0 0 BBBBB.BBBBBBBB .CCCCCCCC 00000-0 ******** 0 DDDDZ
2 AAAAA EEE.EEEE FFF.FFFF GGGGGGG HHH.HHHH III.IIII JJ.JJJJJJJJKKKKKZ
KEY: A-CATALOGNUM B-EPOCHTIME C-DECAY *-BSTAR D-ELSETNUM E-INCLINATION
F-RAAN G-ECCENTRICITY H-ARGPERIGEE I-MNANOM J-MNMOTION K-ORBITNUM
Z-CHECKSUM
For more detail see www.amsat.org/keplerian-elements-formats/
AO-07
1 07530U 74089B 23200.83730623 -.00000048 00000-0 -10401-4 0 9996
2 07530 101.9482 187.7360 0012323 3.3036 113.8701 12.53665446227509
UO-11
1 14781U 84021B 23200.87338540 .00001997 00000-0 23995-3 0 9998
2 14781 97.6590 176.5424 0009822 93.9142 266.3197 14.85016591119990
AO-16
1 20439U 90005D 23200.85688840 .00000223 00000-0 98344-4 0 9995
2 20439 98.8841 191.9267 0011873 106.3785 11.1616 14.33127123749837
